Date String (YYYY-MM-DD hh:mm:ss) UTC,Instrument flags,absolute air pressure of the measurement (hPa),sample flow rate (lpm),inlet stack bypass flow (lpm),air temperature of the measurement (°C),ambient temperature measured by the external sensor (°C),aerosol sample conditioner tube jacket temperature (°C),OPC LED temperature (°C),internal box temperature (°C),relative humidity of the measurement (%),span deviation,mass concentration of particles derived from Lorenz-Mie calculation of OPC scattering (μg/m³),mass concentration of particles derived from Lorenz-Mie calculation of OPC scattering (μg/m³),mass concentration of particles derived from Lorenz-Mie calculation of OPC scattering (μg/m³)
DateTimeUTC,F1_M11,P_M11,Q1_M11,Q2_M11,T1_M11,T2_M11,T3_M11,T4_M11,T5_M11,U1_M11,ZSPAN_M11,X0_M11,X2_M11,X1_M11
2024-02-13 12:00:00,SystemResetWarning,0826.6,5.00,000.00,018.2,017.3,000.0,026.9,020.0,14.6,0000.0,0009.77,0005.85,0005.47
2024-02-13 12:01:00,SystemResetWarning,0826.4,5.00,000.00,018.2,017.3,000.0,026.9,020.0,14.5,0000.0,0009.86,0005.80,0005.42
2024-02-13 12:02:00,SystemResetWarning,0826.4,5.01,000.00,018.2,017.3,000.0,026.9,020.0,14.3,0000.0,0009.79,0005.77,0005.40
2024-02-13 12:03:00,SystemResetWarning,0826.4,4.98,000.00,018.2,017.3,000.0,026.9,020.0,14.2,0000.0,0009.13,0005.74,0005.39
2024-02-13 12:04:00,SystemResetWarning,0826.4,5.00,000.00,018.2,017.3,000.0,027.0,020.0,14.4,0000.0,0008.95,0005.72,0005.39
2024-02-13 12:05:00,SystemResetWarning,0826.4,5.01,000.00,018.2,017.3,000.0,027.0,020.0,14.5,0000.0,0008.95,0005.73,0005.39
2024-02-13 12:06:00,SystemResetWarning,0826.5,5.00,000.00,018.2,017.3,000.0,027.0,020.0,14.5,0000.0,0009.39,0005.73,0005.39
2024-02-13 12:07:00,SystemResetWarning,0826.6,5.00,000.00,018.2,017.3,000.0,027.0,020.0,14.6,0000.0,0009.75,0005.71,0005.39
2024-02-13 12:08:00,SystemResetWarning,0826.4,5.00,000.00,018.3,017.8,000.0,027.0,020.2,14.5,0000.0,0009.84,0005.71,0005.37
2024-02-13 12:09:00,SystemResetWarning,0826.4,5.01,000.00,018.5,018.5,000.0,027.1,020.7,14.3,0000.0,0009.74,0005.64,0005.31
2024-02-13 12:10:00,SystemResetWarning,0826.4,4.99,000.00,018.7,019.0,000.0,027.1,020.9,14.2,0000.0,0009.99,0005.59,0005.27
2024-02-13 12:11:00,SystemResetWarning,0826.4,4.99,000.00,018.7,018.8,000.0,027.0,020.6,14.1,0000.0,0009.68,0005.55,0005.24
2024-02-13 12:12:00,SystemResetWarning,0826.3,5.01,000.00,018.7,018.6,000.0,027.0,020.4,14.2,0000.0,0009.61,0005.54,0005.22
2024-02-13 12:13:00,SystemResetWarning,0826.2,5.00,000.00,018.6,018.4,000.0,026.9,020.2,14.3,0000.0,0009.61,0005.50,0005.18
2024-02-13 12:14:00,SystemResetWarning,0826.2,5.00,000.00,018.5,018.3,000.0,026.9,020.1,14.3,0000.0,0009.69,0005.45,0005.16
2024-02-13 12:15:00,SystemResetWarning,0826.2,5.00,000.00,018.5,018.1,000.0,026.9,020.1,14.4,0000.0,0010.17,0005.43,0005.13
2024-02-13 12:16:00,SystemResetWarning,0826.1,5.00,000.00,018.5,018.0,000.0,026.9,020.0,14.3,0000.0,0010.17,0005.42,0005.11
2024-02-13 12:17:00,SystemResetWarning,0826.2,5.00,000.00,018.4,017.9,000.0,026.9,020.0,14.6,0000.0,0009.75,0005.41,0005.08
2024-02-13 12:18:00,SystemResetWarning,0826.1,4.99,000.00,018.4,017.8,000.0,026.9,020.0,15.1,0000.0,0009.45,0005.37,0005.05
2024-02-13 12:19:00,SystemResetWarning,0826.2,4.99,000.00,018.4,017.8,000.0,026.9,020.0,15.3,0000.0,0009.67,0005.34,0005.04
2024-02-13 12:20:00,SystemResetWarning,0826.3,5.00,000.00,018.4,017.7,000.0,026.9,020.0,15.5,0000.0,0010.14,0005.37,0005.06
2024-02-13 12:21:00,SystemResetWarning,0826.2,5.01,000.00,018.3,017.7,000.0,026.9,020.0,15.8,0000.0,0010.14,0005.37,0005.07
2024-02-13 12:22:00,SystemResetWarning,0826.2,5.00,000.00,018.3,017.7,000.0,026.9,020.0,16.0,0000.0,0009.73,0005.35,0005.05
2024-02-13 12:23:00,SystemResetWarning,0826.3,5.00,000.00,018.3,017.7,000.0,026.9,020.0,15.7,0000.0,0009.73,0005.29,0005.03
2024-02-13 12:24:00,SystemResetWarning,0826.4,5.00,000.00,018.3,017.7,000.0,026.9,020.0,15.4,0000.0,0010.72,0005.48,0005.19
2024-02-13 12:25:00,SystemResetWarning,0826.4,5.00,000.00,018.3,017.7,000.0,026.9,020.0,16.2,0000.0,0011.68,0005.73,0005.40
2024-02-13 12:26:00,SystemResetWarning,0826.5,5.00,000.00,018.3,017.6,000.0,026.9,020.0,16.3,0000.0,0011.76,0006.00,0005.65
2024-02-13 12:27:00,SystemResetWarning,0826.4,5.00,000.00,018.3,017.6,000.0,026.9,020.0,16.3,0000.0,0012.89,0006.28,0005.90
2024-02-13 12:28:00,SystemResetWarning,0826.4,4.98,000.00,018.3,017.6,000.0,026.9,020.0,16.3,0000.0,0013.57,0006.54,0006.14
2024-02-13 12:29:00,SystemResetWarning,0826.5,5.00,000.00,018.3,017.6,000.0,026.9,020.0,16.2,0000.0,0014.48,0006.83,0006.39
2024-02-13 12:30:00,SystemResetWarning,0826.5,5.02,000.00,018.3,017.6,000.0,026.9,020.0,16.2,0000.0,0014.62,0007.00,0006.51
2024-02-13 12:31:00,SystemResetWarning,0826.5,5.00,000.00,018.3,017.6,000.0,026.9,020.0,16.3,0000.0,0015.32,0007.26,0006.70
2024-02-13 12:32:00,SystemResetWarning,0826.5,4.98,000.00,018.3,017.6,000.0,026.9,020.0,16.3,0000.0,0015.68,0007.47,0006.88
2024-02-13 12:33:00,SystemResetWarning,0826.6,5.01,000.00,018.3,017.6,000.0,026.9,020.0,16.3,0000.0,0016.27,0007.68,0007.06
2024-02-13 12:34:00,SystemResetWarning,0826.6,5.01,000.00,018.3,017.5,000.0,026.9,020.0,16.3,0001.2,0017.06,0007.93,0007.27
2024-02-13 12:35:00,SystemResetWarning,0826.6,4.98,000.00,018.3,017.5,000.0,026.9,020.0,16.3,0001.7,0016.29,0007.99,0007.32
2024-02-13 12:36:00,SystemResetWarning,0826.7,5.00,000.00,018.3,017.5,000.0,026.9,020.0,16.3,0000.0,0015.65,0008.01,0007.30
2024-02-13 12:37:00,SystemResetWarning,0826.8,5.02,000.00,018.2,017.5,000.0,026.9,020.0,16.3,0000.0,0015.76,0007.97,0007.28
2024-02-13 12:38:00,SystemResetWarning,0826.8,5.01,000.00,018.2,017.5,000.0,026.9,020.0,16.3,0000.0,0015.95,0007.96,0007.26
2024-02-13 12:39:00,SystemResetWarning,0826.8,5.00,000.00,018.2,017.5,000.0,026.9,020.0,16.3,0000.0,0015.97,0007.99,0007.25
2024-02-13 12:40:00,SystemResetWarning,0826.7,5.00,000.00,018.2,017.5,000.0,026.9,020.0,16.2,0000.0,0016.02,0007.95,0007.24
2024-02-13 12:41:00,SystemResetWarning,0826.6,5.00,000.00,018.2,017.5,000.0,026.9,020.0,16.0,0000.0,0015.80,0008.03,0007.32
2024-02-13 12:42:00,SystemResetWarning,0826.6,4.99,000.00,018.2,017.5,000.0,026.9,020.0,16.0,0000.0,0015.48,0008.02,0007.33
2024-02-13 12:43:00,SystemResetWarning,0826.6,4.99,000.00,018.2,017.5,000.0,026.9,020.0,16.1,0000.0,0015.45,0008.03,0007.35
2024-02-13 12:44:00,SystemResetWarning,0826.7,5.00,000.00,018.2,017.5,000.0,026.9,020.0,16.0,0000.0,0015.15,0008.07,0007.37
2024-02-13 12:45:00,SystemResetWarning,0826.8,5.01,000.00,018.2,017.5,000.0,026.9,020.0,16.0,0000.0,0014.58,0008.07,0007.40
2024-02-13 12:46:00,SystemResetWarning,0826.8,5.00,000.00,018.2,017.5,000.0,026.9,020.0,15.9,0000.0,0014.58,0008.05,0007.41
2024-02-13 12:47:00,SystemResetWarning,0826.7,5.00,000.00,018.2,017.5,000.0,026.9,020.0,15.9,0000.0,0014.48,0007.98,0007.38
2024-02-13 12:48:00,SystemResetWarning,0826.6,5.01,000.00,018.2,017.5,000.0,026.9,020.0,15.9,0000.0,0013.95,0007.90,0007.31
2024-02-13 12:49:00,SystemResetWarning,0826.6,5.00,000.00,018.2,017.5,000.0,026.9,020.0,15.9,0000.0,0013.14,0007.81,0007.24
2024-02-13 12:50:00,SystemResetWarning,0826.6,4.99,000.00,018.2,017.5,000.0,026.9,020.0,15.8,0000.0,0013.12,0007.71,0007.18
2024-02-13 12:51:00,SystemResetWarning,0826.6,4.99,000.00,018.2,017.5,000.0,026.9,020.0,15.7,0000.0,0012.18,0007.60,0007.11
2024-02-13 12:52:00,SystemResetWarning,0826.6,5.00,000.00,018.2,017.5,000.0,026.9,020.0,15.6,0000.0,0012.35,0007.54,0007.08
2024-02-13 12:53:00,SystemResetWarning,0826.6,5.01,000.00,018.2,017.5,000.0,026.9,020.0,15.6,0000.0,0012.05,0007.48,0007.04
2024-02-13 12:54:00,SystemResetWarning,0826.6,5.00,000.00,018.2,017.5,000.0,026.9,020.0,15.5,0000.0,0011.62,0007.44,0007.00
2024-02-13 12:55:00,SystemResetWarning,0826.6,5.00,000.00,018.2,017.5,000.0,026.9,020.0,15.5,0000.0,0012.12,0007.40,0006.96
2024-02-13 12:56:00,SystemResetWarning,0826.6,5.00,000.00,018.2,017.4,000.0,026.9,020.0,15.5,0000.0,0012.00,0007.33,0006.90
2024-02-13 12:57:00,SystemResetWarning,0826.6,5.00,000.00,018.2,017.4,000.0,026.9,020.0,15.4,0000.0,0011.87,0007.26,0006.84
2024-02-13 12:58:00,SystemResetWarning,0826.7,4.99,000.00,018.2,017.5,000.0,026.9,020.0,15.4,0000.0,0012.10,0007.24,0006.81
2024-02-13 12:59:00,SystemResetWarning,0826.7,4.99,000.00,018.2,017.5,000.0,026.9,020.0,15.4,0000.0,0012.64,0007.21,0006.77
